Tracking 19224 objects as of 22-Jul-2018
HD Live streaming from Space Station
objects crossing your sky now

FENGYUN 1C DEB

Track FENGYUN 1C DEB now!
10-day predictions


NORAD ID: 35222
Int'l Code: 1999-025DQE
Perigee: 487.3 km
Apogee: 693.2 km
Inclination: 98.9 °
Period: 96.3 minutes
Semi major axis: 6961 km
RCS: 0.0015 m2 (small)
Launch date: May 10, 1999
Source: People's Republic of China (PRC)
Launch site: Taiyaun Space Center, China (TSC)

Note: This is SATELLITE DEBRIS
aabbcc
Your satellite tracking list
Your tracking list is empty




NASA's NSSDC Master Catalog

Two Line Element Set (TLE):
1 35222U 99025DQE 18203.15827226  .00001862  00000-0  14441-3 0  9990
2 35222  98.9463 333.2406 0147880 170.4686 189.9393 14.94750374567954
Source of the keplerian elements: AFSPC